Location: Petrozavodsk
(61.7955°N, 34.3748°E)
Time: 22:33:29
(UTC+03:00)

Envisat - Pass Details

Date: 04 April 2023
Orbit: 763 x 765 km, 98.2° (Epoch: 31 May)

Event Time Altitude Azimuth Distance (km) Brightness Sun altitude
Rises 02:53:22 0° 23° (NNE) 3,249 7.8 -18.3°
Reaches altitude 10° 02:57:13 10° 52° (NE) 2,316 6.6 -18.1°
Maximum altitude 02:59:20 12° 77° (ENE) 2,143 6.0 -17.9°
Drops below altitude 10° 03:01:27 10° 102° (ESE) 2,310 5.8 -17.8°
Sets 03:05:16 0° 131° (SE) 3,229 6.2 -17.5°
